Weather History for KMCW - October, 2012

Change the Weather History Date:

Monday, October 8, 2012

  Actual Average Record
Temperature  
Mean Temperature 54 °F 51 °F  
Max Temperature 69 °F 64 °F 87 °F (2010)
Min Temperature 38 °F 39 °F 20 °F (2000)
Degree Days  
Heating Degree Days 11 14  
Month to date heating degree days 131 102  
Since 1 July heating degree days 323 315  
Cooling Degree Days 0 0  
Month to date cooling degree days 0 2  
Year to date cooling degree days 899 612  
Growing Degree Days 2 (Base 50)    
Moisture  
Dew Point 29 °F    
Average Humidity 46    
Maximum Humidity 70    
Minimum Humidity 21    
Precipitation  
Precipitation 0.07 in 0.08 in 1.36 in (1970)
Month to date precipitation 0.07 0.74  
Year to date precipitation 16.23 30.37  
Snow  
Snow 0.00 in 0.00 in 0.00 in (2002)
Month to date snowfall 0.0 0.0  
Since 1 July snowfall 0.0 0.0  
Since 1 September snowfall 0.0 0.0  
Snow Depth 0.00 in    
Sea Level Pressure  
Sea Level Pressure 29.83 in    
Wind  
Wind Speed 16 mph (SSW)    
Max Wind Speed 33 mph    
Max Gust Speed 43 mph    
Visibility 10 miles    
Events Rain    
T = Trace of Precipitation, MM = Missing Value Source: NWS Daily Summary

Daily Weather History Graph

Daily Weather History Graph

Search for Another Location

Airport or City:

Trip Planner

Search our weather history database for the weather conditions in past years. The results will help you decide how hot, cold, wet, or windy it might be!

Date:

Astronomy

Oct. 08, 2012 Rise Set
Actual Time 7:19 AM CDT 6:41 PM CDT
Civil Twilight 6:50 AM CDT 7:09 PM CDT
Nautical Twilight 6:17 AM CDT 7:42 PM CDT
Astronomical Twilight 5:44 AM CDT 8:15 PM CDT
Moon No Moon Rise 2:41 PM CDT (10/8)
Length of Visible Light 12h 18m
Length of Day
11h 22m
Last Quarter, 46% of the Moon is Illuminated
Oct 8
Last Quarter
Oct 15
New
Oct 21
First Quarter
Oct 29
Full
Nov 6
Last Quarter

Hourly Weather History & Observations

Time (CDT) Temp. Windchill Dew Point Humidity Pressure Visibility Wind Dir Wind Speed Gust Speed Precip Events Conditions
12:53 AM 39.0 °F 31.8 °F 21.0 °F 49% 29.98 in 10.0 mi SSW 11.5 mph - N/A   Clear
1:53 AM 39.0 °F 31.4 °F 21.9 °F 50% 29.96 in 10.0 mi SSW 12.7 mph - N/A   Clear
2:53 AM 39.0 °F 30.6 °F 23.0 °F 53% 29.94 in 10.0 mi SSW 15.0 mph - N/A   Clear
3:53 AM 39.0 °F 30.6 °F 25.0 °F 57% 29.92 in 10.0 mi SSW 15.0 mph - N/A   Clear
4:53 AM 37.9 °F 28.9 °F 26.1 °F 62% 29.91 in 10.0 mi SSW 16.1 mph - N/A   Clear
5:53 AM 37.9 °F 30.9 °F 28.0 °F 68% 29.90 in 10.0 mi SSW 10.4 mph - N/A   Clear
6:53 AM 37.9 °F 30.0 °F 28.9 °F 70% 29.90 in 10.0 mi SSW 12.7 mph - N/A   Partly Cloudy
7:53 AM 39.0 °F 31.0 °F 30.0 °F 70% 29.90 in 10.0 mi SSW 13.8 mph - N/A   Mostly Cloudy
8:53 AM 42.1 °F 34.5 °F 30.0 °F 62% 29.90 in 10.0 mi SSW 15.0 mph 25.3 mph N/A   Overcast
9:53 AM 48.0 °F - 30.9 °F 52% 29.88 in 10.0 mi SSW 18.4 mph 26.5 mph N/A   Mostly Cloudy
10:53 AM 51.8 °F - 32.0 °F 47% 29.86 in 10.0 mi SSW 16.1 mph - N/A   Overcast
11:53 AM 57.9 °F - 32.0 °F 37% 29.83 in 10.0 mi South 15.0 mph 25.3 mph N/A   Mostly Cloudy
12:53 PM 62.1 °F - 30.0 °F 30% 29.81 in 10.0 mi South 20.7 mph 29.9 mph N/A   Overcast
1:53 PM 66.9 °F - 28.0 °F 23% 29.76 in 10.0 mi SSW 21.9 mph 33.4 mph N/A   Partly Cloudy
2:53 PM 68.0 °F - 26.1 °F 21% 29.73 in 10.0 mi SW 32.2 mph 39.1 mph N/A   Clear
3:53 PM 64.0 °F - 27.0 °F 25% 29.73 in 10.0 mi SSW 26.5 mph 42.6 mph N/A   Mostly Cloudy
4:53 PM 64.9 °F - 27.0 °F 24% 29.73 in 10.0 mi SSW 23.0 mph 38.0 mph N/A   Scattered Clouds
5:53 PM 64.0 °F - 28.9 °F 27% 29.73 in 10.0 mi SSW 23.0 mph 35.7 mph N/A   Clear
6:53 PM 61.0 °F - 28.9 °F 30% 29.73 in 10.0 mi SSW 17.3 mph 24.2 mph N/A   Clear
7:53 PM 59.0 °F - 28.9 °F 32% 29.74 in 10.0 mi SSW 15.0 mph - N/A   Mostly Cloudy
8:53 PM 59.0 °F - 30.0 °F 33% 29.75 in 10.0 mi SW 13.8 mph - N/A   Overcast
9:53 PM 60.1 °F - 30.0 °F 32% 29.78 in 10.0 mi WSW 12.7 mph 20.7 mph N/A   Overcast
10:53 PM 57.0 °F - 37.9 °F 49% 29.80 in 10.0 mi WNW 10.4 mph - 0.00 in   Overcast
11:53 PM 52.0 °F - 46.9 °F 83% 29.83 in 9.0 mi WNW 8.1 mph - 0.01 in Rain Light Rain